Location: Gagetown
(45.7834°N, 66.1486°W)
Time: 21:06:02
(UTC+00:00)

Tianhe-1 - Visible Passes

Search period start: 22 June 2021 00:00
Search period end: 02 July 2021 00:00
Orbit: 375 x 385 km, 41.5° (Epoch: 22 June)

Date Brightness Start Highest point End Pass type
(mag) Time Alt. Az. Time Alt. Az. Time Alt. Az.
22 Jun 2.8 07:01:21 17° S 07:02:06 18° SSE 07:04:22 10° ESE visible
23 Jun 2.1 07:35:02 13° SW 07:37:27 30° S 07:40:17 10° ESE visible
24 Jun 2.4 06:36:30 24° SSE 06:36:30 24° SSE 06:39:02 10° ESE visible
25 Jun 1.8 07:09:57 20° SW 07:11:35 35° S 07:14:30 10° ESE visible
26 Jun 2.5 06:11:16 24° SE 06:11:16 24° SE 06:13:05 10° ESE visible
26 Jun 1.8 07:43:45 10° WSW 07:46:40 35° S 07:49:34 10° ESE visible
27 Jun 1.6 06:44:38 33° SSW 06:45:14 37° S 06:48:09 10° ESE visible
28 Jun 3.4 05:45:56 14° ESE 05:45:56 14° ESE 05:46:34 10° ESE visible
28 Jun 1.9 07:18:02 16° WSW 07:20:02 31° S 07:22:51 10° SE visible
29 Jun 2.4 06:19:28 26° SE 06:19:28 26° SE 06:21:17 10° ESE visible
29 Jun 2.6 07:52:21 10° WSW 07:54:37 19° SSW 07:56:53 10° SSE visible
30 Jun 2.2 06:53:19 24° S 06:53:19 24° S 06:55:32 10° SE visible
01 Jul 3.1 07:27:45 13° SSW 07:27:45 13° SSW 07:28:47 10° S visible
